Location: Caldenberg
(52.0633°N, 11.7418°E)
Time: 13:26:21
(UTC+00:00)

Daily predictions for brighter satellites

Satellite Brightness Start Highest point End
(mag) Time Altitude Azimuth Time Altitude Azimuth Time Altitude Azimuth
IRS-1A Rocket 4.4 18:06:39 10° SSE 18:12:16 68° ENE 18:18:02 10° NNW
Cosmos 1553 Rocket 4.0 18:07:28 10° S 18:13:32 87° E 18:19:41 10° N
Cosmos 2219 Rocket 3.2 18:08:06 10° SW 18:13:37 51° NW 18:19:08 10° NNE
STARLINK-1084 3.7 18:10:30 10° WNW 18:14:40 90° SSW 18:18:50 10° ESE
STARLINK-1083 4.4 18:10:48 10° WNW 18:14:42 45° SSW 18:18:37 10° SE
STARLINK-1237 4.4 18:11:49 10° SSW 18:15:26 31° SE 18:19:02 10° E
KORONAS-FOTON 4.2 18:12:15 10° NNW 18:16:06 67° W 18:19:51 10° S
Cosmos 1943 Rocket 2.7 18:11:44 10° NNW 18:16:59 42° NE 18:22:15 10° ESE
STARLINK-1209 3.1 18:15:12 10° SW 18:18:02 45° SSE 18:20:52 10° E
ATLAS 2AS CENTAUR R/B 3.8 18:11:48 10° NW 18:19:10 40° NNE 18:26:05 10° E
STARLINK-1098 3.6 18:15:30 10° WNW 18:19:40 87° SSW 18:23:49 10° ESE
STARLINK-1202 4.4 18:16:28 10° SSW 18:20:07 33° SE 18:23:48 10° E
STARLINK-1228 3.1 18:17:24 10° SW 18:20:10 46° SSE 18:22:58 10° E
SL-14 R/B 3.4 18:16:10 10° N 18:20:11 58° ENE 18:24:09 10° SSE
STARLINK-1123 3.6 18:20:29 10° WNW 18:24:38 85° SSW 18:28:48 10° ESE
SL-8 R/B 4.0 18:20:07 10° WSW 18:24:48 56° S 18:29:29 10° E
Cosmos 1980 3.8 18:19:10 10° SSW 18:24:52 88° WNW 18:30:37 10° NNE
ERBS 2.5 18:23:30 10° WSW 18:26:52 75° NNW 18:30:16 10° ENE
STARLINK-1246 4.2 18:23:23 10° SW 18:27:10 37° SSE 18:30:57 10° E
STARLINK-1097 3.7 18:25:27 10° WNW 18:29:36 82° SSW 18:33:37 11° ESE
Cosmos 2315 Rocket 4.3 18:23:47 10° SSE 18:29:47 48° E 18:35:52 10° NNE
Cosmos 1766 3.4 18:26:01 10° S 18:30:01 85° W 18:34:02 10° N
ADEOS Rocket 3.5 18:23:04 10° NNE 18:30:01 74° WNW 18:36:12 10° SSW
USA 234 4.0 18:24:47 10° ENE 18:30:28 31° SE 18:36:06 10° S
STARLINK-67 2.4 18:29:43 10° WSW 18:32:17 65° SSE 18:34:49 10° ENE
Cosmos 1626 2.0 18:29:00 10° N 18:32:43 74° ENE 18:36:25 10° SSE
STARLINK-1201 3.3 18:29:40 10° SW 18:32:49 47° SSE 18:36:00 10° E
Resurs 1-3 4.3 18:28:59 10° SE 18:32:57 35° ENE 18:36:57 10° N
STARLINK-1224 4.1 18:30:33 10° SW 18:34:21 40° SSE 18:38:10 10° E
STARLINK-1099 3.7 18:30:26 10° WNW 18:34:35 80° SSW 18:38:25 12° ESE
Meteor 2-8 Rocket 4.4 18:28:43 10° S 18:34:50 74° E 18:40:58 10° NNE
STARLINK-1203 4.0 18:32:10 10° SW 18:35:56 42° SSE 18:39:44 10° E
H-2A R/B 2.1 18:31:03 10° SSE 18:36:21 87° ENE 18:41:33 10° NNW
SL-16 R/B 2.4 18:33:26 10° S 18:38:51 49° ESE 18:44:17 10° NE
STARLINK-1225 4.0 18:35:07 10° SW 18:38:58 42° SSE 18:42:50 10° ENE
STARLINK-1104 3.7 18:35:25 10° WNW 18:39:34 77° SSW 18:43:12 13° ESE
TSX-5 4.4 18:34:05 10° NW 18:39:52 88° NE 18:44:14 10° SE
SL-08 RB Rocket 3.8 18:36:28 10° SSE 18:40:56 61° ENE 18:45:28 10° N
Cosmos 2333 Rocket 3.9 18:36:06 10° WSW 18:41:19 36° NW 18:46:32 10° NNE
Resurs 01 Rocket 2.5 18:38:54 10° SE 18:42:43 32° ENE 18:46:39 10° N
STARLINK-1230 4.0 18:39:48 10° SW 18:43:41 44° SSE 18:47:31 10° ENE
STARLINK-1144 3.7 18:40:24 10° WNW 18:44:33 74° SSW 18:47:59 15° ESE
STARLINK-1233 3.0 18:43:08 10° SW 18:46:13 56° SSE 18:48:52 13° E
Cosmos 1302 Rocket 4.1 18:41:18 10° NNW 18:46:37 83° WSW 18:51:53 10° SSE
STARLINK-1212 3.0 18:43:36 10° WSW 18:46:40 56° SSE 18:49:17 13° E
FREGAT/IRIS 2.7 18:44:16 10° S 18:46:58 65° W 18:49:42 10° NNW
STARLINK-1105 3.0 18:44:01 10° WSW 18:47:06 57° SSE 18:49:44 14° E
NOSS 2-2 (C) 4.5 18:41:51 10° NW 18:47:08 74° NE 18:53:48 13° SE
STARLINK-1206 3.0 18:44:31 10° WSW 18:47:35 57° SSE 18:50:09 14° E
STARLINK-1247 3.0 18:44:57 10° WSW 18:48:01 57° SSE 18:50:34 14° E
STARLINK-1227 3.0 18:45:22 10° WSW 18:48:28 58° SSE 18:51:02 14° E
Cosmos 1992 Rocket 4.3 18:43:24 10° NNW 18:48:29 49° ENE 18:52:57 13° SE
STARLINK-1243 3.9 18:44:34 10° SW 18:48:29 47° SSE 18:52:09 12° E
STARLINK-1218 2.9 18:45:51 10° WSW 18:48:56 58° SSE 18:51:26 14° E
Abrixas rocket 4.3 18:48:30 10° SSE 18:49:07 11° SSE 18:49:07 11° SSE
STARLINK-1226 2.9 18:46:17 10° WSW 18:49:22 58° SSE 18:51:53 14° E
SeaSat 1 3.7 18:44:47 10° NNE 18:49:29 44° NW 18:54:09 10° WSW
Cosmos 1709 Rocket 4.0 18:43:12 10° N 18:49:29 88° W 18:55:38 10° S
STARLINK-1103 3.7 18:45:22 10° WNW 18:49:31 71° SSW 18:52:45 16° ESE
STARLINK-1254 2.9 18:46:43 10° WSW 18:49:49 59° SSE 18:52:20 14° E
STARLINK-1215 2.9 18:47:12 10° WSW 18:50:16 59° SSE 18:52:45 15° E
STARLINK-1231 2.9 18:47:38 10° WSW 18:50:43 59° SSE 18:53:10 15° E
STARLINK-1232 2.9 18:48:32 10° WSW 18:51:37 60° SSE 18:54:02 15° E
Cosmos 1953 3.2 18:48:22 10° SSE 18:51:46 28° E 18:55:11 10° NNE
STARLINK-1217 2.9 18:49:00 10° WSW 18:52:04 60° SSE 18:54:28 15° E
STARLINK-1208 2.9 18:49:24 10° WSW 18:52:30 61° SSE 18:54:56 15° E
STARLINK-1229 2.9 18:49:53 10° WSW 18:52:58 61° SSE 18:55:20 16° E
STARLINK-1236 3.8 18:49:19 10° SW 18:53:15 49° SSE 18:56:45 13° E
STARLINK-1271 2.9 18:50:20 10° WSW 18:53:25 61° SSE 18:55:46 16° E
STARLINK-1270 2.9 18:50:48 10° WSW 18:53:53 61° SSE 18:56:13 16° E
STARLINK-1154 2.9 18:51:14 10° WSW 18:54:19 62° SSE 18:56:39 16° E
STARLINK-1101 3.7 18:50:21 10° WNW 18:54:29 68° SSW 18:57:32 17° ESE
STARLINK-1197 2.9 18:52:09 10° WSW 18:55:13 62° SSE 18:57:31 17° E
STARLINK-1189 2.9 18:52:36 10° WSW 18:55:41 63° SSE 18:57:57 17° E
Cosmos 1269 Rocket 4.0 18:50:24 10° SSW 18:55:42 80° ESE 19:01:02 10° NNE
SL-24 R/B 4.5 18:51:34 10° NNE 18:56:02 41° E 18:59:58 10° SSE
STARLINK-1187 2.8 18:53:24 10° WSW 18:56:32 68° SSE 18:58:50 17° E
STARLINK-1188 2.9 18:53:29 10° WSW 18:56:35 63° SSE 18:58:49 17° E
STARLINK-1198 2.9 18:53:30 10° WSW 18:56:35 63° SSE 18:58:49 17° E
STARLINK-1235 2.8 18:54:05 10° WSW 18:57:14 73° SSE 18:59:33 17° ENE
CZ-4C R/B 3.9 18:52:25 10° WNW 18:57:37 34° NNW 19:03:46 10° NE
STARLINK-1199 2.9 18:55:25 10° WSW 18:58:32 65° SSE 19:00:44 18° E
STARLINK-1191 2.8 18:55:52 10° WSW 18:58:59 65° SSE 19:01:10 18° E
STARLINK-1210 2.8 18:56:19 10° WSW 18:59:26 66° SSE 19:01:36 18° E
STARLINK-1102 3.8 18:55:19 10° WNW 18:59:26 65° SSW 19:02:19 19° SE
STARLINK-1221 2.8 18:56:46 10° WSW 18:59:53 66° SSE 19:02:02 18° E
STARLINK-1219 2.8 18:57:13 10° WSW 19:00:20 66° SSE 19:02:29 19° E
ISS -3.6 18:57:22 10° W 19:00:42 63° SSW 19:02:41 22° ESE
STARLINK-1222 2.8 18:57:40 10° WSW 19:00:47 67° SSE 19:02:54 19° E
Cosmos 2297 4.4 18:55:31 10° NW 19:01:02 54° WSW 19:06:33 10° S
STARLINK-1211 2.8 18:58:08 10° WSW 19:01:14 67° SSE 19:03:19 19° E
STARLINK-1214 2.8 18:58:34 10° WSW 19:01:41 67° SSE 19:03:46 19° E
STARLINK-1245 2.8 18:59:03 10° WSW 19:02:09 68° SSE 19:04:10 20° E
Cosmos 2074 Rocket 4.2 18:56:12 10° N 19:02:21 53° ENE 19:08:17 11° SSE
STARLINK-1238 2.8 18:59:26 10° WSW 19:02:33 68° SSE 19:04:37 19° E
STARLINK-1269 3.7 18:59:04 10° SW 19:03:03 55° SSE 19:06:12 16° E
BREEZE-M DEB (TANK) 4.0 18:55:30 10° W 19:03:17 64° SSW 19:05:20 21° ESE
Cosmos 1455 Rocket 3.7 18:59:04 10° SSW 19:03:21 60° WNW 19:07:42 10° N
Cosmos 2251 Rocket 4.2 18:58:44 10° SSE 19:03:25 32° ESE 19:08:09 10° NE
STARLINK-1205 2.8 19:00:21 10° WSW 19:03:27 69° SSE 19:05:26 20° E
Cosmos 2084 Rocket 3.5 18:59:12 10° NW 19:03:41 89° NNE 19:06:58 18° SE
STARLINK-1204 2.8 19:00:50 10° WSW 19:03:56 69° SSE 19:05:54 20° E
STARLINK-1111 3.8 19:00:19 10° WNW 19:04:25 62° SSW 19:07:06 20° SE
Cosmos 1703 4.3 19:03:29 10° N 19:06:57 28° ENE 19:08:27 22° ESE
CZ-2C R/B 3.0 19:02:48 10° NNE 19:07:38 38° E 19:12:26 10° SSE
STARLINK-1200 3.6 19:03:51 10° SW 19:07:51 58° SSE 19:10:50 17° E
Cosmos 1626 Rocket 3.8 19:04:01 10° NNW 19:08:26 71° W 19:12:46 10° S
Cosmos 2237 Rocket 3.2 19:02:58 10° SW 19:08:27 51° NW 19:13:58 10° NNE
STARLINK-1073 3.9 19:05:18 10° WNW 19:09:24 59° SSW 19:11:53 22° SE
ERS-1 Rocket 4.4 19:08:39 16° E 19:10:51 21° NE 19:14:36 10° N
STARLINK-1192 3.6 19:08:34 10° SW 19:12:36 61° SSE 19:15:24 19° E
STARLINK-1121 3.9 19:10:16 10° WNW 19:14:21 56° SSW 19:16:39 24° SE
Cosmos 292 Rocket 3.7 19:10:07 10° NNW 19:14:56 80° ENE 19:18:32 18° SSE
Cosmos 1602 Rocket 3.8 19:11:58 10° NNW 19:16:27 75° W 19:20:51 10° S
ARGOS 3.9 19:11:34 10° S 19:16:51 55° W 19:22:10 10° NNW
Cosmos 1656 Rocket 4.2 19:11:53 10° NNW 19:17:22 45° NE 19:20:40 22° ESE
STARLINK-1244 3.6 19:13:28 10° WSW 19:17:30 64° SSE 19:20:08 21° E
IRIDIUM 104 4.3 19:12:31 10° N 19:17:46 77° E 19:22:59 10° S
STARLINK-1106 4.0 19:15:14 10° WNW 19:19:17 53° SSW 19:21:25 25° SE
MOS 1 Rocket 3.7 19:16:58 10° NNE 19:22:03 52° E 19:27:19 10° S
STARLINK-1138 3.5 19:18:02 10° WSW 19:22:06 67° SSE 19:24:34 23° E
STARLINK-1234 2.6 19:19:59 10° WSW 19:22:57 88° NNW 19:24:04 35° ENE
USA 186 4.0 19:21:13 10° SSW 19:24:12 27° W 19:27:08 10° NW
STARLINK-1112 4.1 19:20:15 10° WNW 19:24:17 50° SSW 19:26:14 27° SE
IRIDIUM 114 4.3 19:21:40 10° N 19:26:56 90° ENE 19:32:10 10° S
STARLINK-1143 3.5 19:22:55 10° WSW 19:27:00 70° SSE 19:29:16 25° E
MetOp-A 4.3 19:22:07 10° S 19:27:28 74° WSW 19:32:51 10° NNW
COSMOS 2455 4.0 19:22:58 10° NNW 19:28:22 32° NNE 19:32:01 18° E
STARLINK-1128 4.2 19:25:14 10° WNW 19:29:14 48° SSW 19:31:01 28° SSE
CZ-2C R/B 4.3 19:24:41 10° SSW 19:29:21 39° W 19:33:55 10° NNW
Cosmos 1437 2.5 19:27:51 10° N 19:30:52 62° ENE 19:31:25 50° SE
Cosmos 1470 3.4 19:29:07 10° SSW 19:32:55 56° WNW 19:36:48 10° N
STARLINK-1113 4.2 19:30:14 10° WNW 19:34:12 45° SSW 19:35:47 30° SSE
Cosmos 1726 Rocket 4.2 19:33:41 32° ESE 19:34:27 34° E 19:38:27 10° NNE
STARLINK-1241 3.4 19:31:15 10° WSW 19:35:18 75° SSE 19:37:12 30° E
Cosmos 1825 Rocket 3.5 19:31:05 10° N 19:35:32 73° ENE 19:37:53 27° SSE
SPOT 3 Rocket 4.1 19:30:50 10° S 19:35:58 58° WSW 19:41:09 10° NNW
IRIDIUM 103 4.5 19:30:52 10° N 19:36:06 77° W 19:41:19 10° S
NOSS 3-4 (A) 4.0 19:31:40 10° NW 19:38:19 59° NE 19:42:42 25° ESE
NOSS 3-4 (C) 4.0 19:31:45 10° NW 19:38:25 59° NE 19:42:48 25° ESE
STARLINK-1119 4.3 19:35:13 10° WNW 19:39:09 43° SSW 19:40:34 31° SSE
Cosmos 2369 Rocket 2.3 19:33:50 10° NNW 19:39:33 77° WSW 19:43:14 23° SSE
STARLINK-1239 3.4 19:36:10 10° WSW 19:40:14 77° SSE 19:41:56 33° E
Cosmos 2327 Rocket 4.5 19:34:11 10° N 19:40:27 69° ENE 19:44:38 22° SSE
Cosmos 1461 4.3 19:38:48 10° NNW 19:42:44 30° NNE 19:44:33 23° ENE
STARLINK-1114 4.4 19:40:15 10° W 19:44:09 40° SSW 19:45:24 31° S
Aureole 2 Rocket 3.0 19:41:08 10° NNW 19:44:35 55° WSW 19:45:57 31° S
Cosmos 1726 2.0 19:42:57 31° S 19:44:36 70° E 19:48:20 10° NNE
STARLINK-1240 3.4 19:40:53 10° WSW 19:44:57 80° SSE 19:46:29 37° E
Cosmos 1758 Rocket 3.6 19:40:55 10° NNW 19:45:19 79° W 19:47:54 24° S
Cosmos 2263 4.1 19:39:57 10° NNW 19:45:37 90° WSW 19:48:35 29° SSE
Cosmos 1758 4.4 19:43:01 10° SSW 19:46:58 46° WNW 19:50:57 10° N
SAR-Lupe-2 3.7 19:44:04 10° NNE 19:47:27 49° E 19:47:27 49° E
CZ-2C R/B 4.2 19:43:00 10° N 19:47:45 66° WNW 19:52:25 10° SSW
Cosmos 1908 3.7 19:48:58 40° E 19:48:58 40° E 19:52:18 10° NNE
STARLINK-1216 3.4 19:45:37 10° WSW 19:49:41 83° SSE 19:51:02 41° E
NOSS 3-3 (A) 4.1 19:44:32 10° SSW 19:50:09 46° ESE 19:56:28 10° NE
NOSS 3-3 (C) 4.1 19:44:39 10° SSW 19:50:15 46° ESE 19:56:33 10° NE
Meteor 2-17 Rocket 4.4 19:44:14 10° N 19:50:23 70° ENE 19:53:45 28° SSE
ATLAS CENTAUR R/B 4.0 19:49:28 10° NW 19:51:50 14° N 19:54:06 10° NNE
Cosmos 1953 Rocket 3.5 19:47:22 10° N 19:51:50 73° ENE 19:53:21 40° SSE
STARLINK-1209 2.8 19:50:00 10° W 19:52:49 72° NNW 19:52:49 72° NNW
Cosmos 2184 Rocket 4.1 19:47:59 10° NNW 19:54:20 76° W 19:59:37 15° S
STARLINK-1237 3.4 19:50:24 10° WSW 19:54:28 85° SSE 19:55:38 45° E
Terra 2.9 19:53:53 26° ENE 19:54:35 28° ENE 19:58:35 10° N
STARLINK-1228 2.9 19:52:11 10° W 19:54:50 67° NW 19:54:50 67° NW
Spot 2 Rocket 3.4 19:55:41 34° SSE 19:57:58 81° ENE 20:03:07 10° NNW
STARLINK-1202 3.4 19:55:08 10° WSW 19:59:12 88° S 20:00:12 50° E
Cosmos 1943 Rocket 3.1 19:55:35 10° NW 20:00:48 43° WSW 20:04:35 18° S
Cosmos 1606 Rocket 3.4 19:59:07 36° S 20:00:50 74° E 20:05:17 10° NNE
SPOT 1/Viking Rocket 3.6 20:00:50 41° SE 20:02:28 61° ENE 20:07:37 10° N
ERBS 3.7 20:00:24 10° WNW 20:03:33 35° N 20:04:36 28° NNE
Cosmos 1943 3.2 20:01:04 17° S 20:05:19 54° ESE 20:10:52 10° NE
STARLINK-67 4.2 20:03:43 10° W 20:05:16 31° WNW 20:05:16 31° WNW
STARLINK-1246 3.5 20:02:19 10° WSW 20:06:26 89° N 20:07:11 58° ENE
SL-8 R/B 4.2 20:02:27 10° W 20:06:59 43° SSW 20:07:34 41° S
Meteor 2-10 4.2 20:02:00 10° SSW 20:07:23 81° WNW 20:13:00 10° NNE
STARLINK-1201 3.3 20:05:45 10° W 20:08:41 66° WNW 20:08:41 66° WNW
ATLAS 2AS CENTAUR R/B 2.9 20:03:24 10° NW 20:11:12 81° NE 20:14:22 38° SE
STARLINK-1224 3.5 20:09:27 10° W 20:13:31 86° NNW 20:13:58 70° ENE
USA 234 3.1 20:07:32 10° ENE 20:14:07 79° SSE 20:20:41 10° WSW
Cosmos 1340 Rocket 3.9 20:15:29 33° NE 20:15:29 33° NE 20:18:05 10° NNE
STARLINK-1203 3.4 20:10:49 10° W 20:14:49 84° NNW 20:15:06 75° NE
Cosmos 2154 Rocket 4.1 20:09:03 10° NNW 20:15:27 81° W 20:18:59 28° S
Cosmos 2181 Rocket 4.5 20:15:29 37° E 20:16:04 38° E 20:21:45 10° NNE
USA 245 4.1 20:15:17 40° S 20:17:15 81° WSW 20:23:16 10° NNW
STARLINK-1225 3.5 20:14:02 10° W 20:18:08 85° N 20:18:23 77° NE
Resurs 01 Rocket 3.0 20:16:28 18° SSW 20:19:11 36° W 20:23:16 10° NNW
Cosmos 1328 4.3 20:15:37 10° NNW 20:19:33 56° W 20:20:25 45° SW
Cosmos 921 Rocket 3.3 20:17:27 10° NNW 20:21:21 49° NE 20:21:21 49° NE
STARLINK-1233 4.2 20:18:53 10° W 20:21:02 39° WNW 20:21:02 39° WNW
STARLINK-1212 4.2 20:19:21 10° W 20:21:27 38° WNW 20:21:27 38° WNW
STARLINK-1230 3.5 20:18:48 10° W 20:22:53 83° NNW 20:22:57 82° NNE
STARLINK-1105 4.2 20:19:46 10° W 20:21:54 38° WNW 20:21:54 38° WNW
SL-16 R/B 3.6 20:17:50 10° WSW 20:23:08 39° NW 20:28:26 10° NNE
STARLINK-1206 4.3 20:20:17 10° W 20:22:18 36° WNW 20:22:18 36° WNW
STARLINK-1247 4.3 20:20:43 10° W 20:22:43 36° WNW 20:22:43 36° WNW
Cosmos 2228 3.1 20:22:39 42° SSW 20:24:00 72° W 20:28:20 10° N
STARLINK-1227 4.3 20:21:08 10° W 20:23:12 37° WNW 20:23:12 37° WNW
STARLINK-1218 4.4 20:21:37 10° W 20:23:36 35° W 20:23:36 35° W
STARLINK-1226 4.4 20:22:04 10° W 20:24:02 35° W 20:24:02 35° W
Cosmos 407 Rocket 4.3 20:26:39 34° ENE 20:26:39 34° ENE 20:30:03 10° NE
Cosmos 967 Rocket 4.4 20:19:00 10° SSW 20:25:24 71° SE 20:31:53 10° NE
STARLINK-1254 4.4 20:22:29 10° W 20:24:30 36° WNW 20:24:30 36° WNW
STARLINK-1215 4.4 20:22:59 10° W 20:24:54 34° W 20:24:54 34° W
Cosmos 2058 4.3 20:22:36 10° N 20:25:19 27° NE 20:25:19 27° NE
STARLINK-1231 4.5 20:23:25 10° W 20:25:19 33° W 20:25:19 33° W
STARLINK-1243 3.6 20:23:37 10° W 20:27:36 80° NW 20:27:36 80° NW
Cosmos 1953 4.1 20:24:32 10° SW 20:28:06 31° WNW 20:31:41 10° N
Iridium 4 Rocket 3.9 20:25:26 10° N 20:28:55 38° NE 20:28:55 38° NE
Cosmos 962 Rocket 4.4 20:23:29 10° N 20:29:45 86° E 20:31:44 46° SSE
STARLINK-1236 3.7 20:28:25 10° W 20:32:12 73° WNW 20:32:12 73° WNW
Nadezhda 1 Rocket 4.2 20:29:48 16° SSW 20:34:59 75° WNW 20:41:24 10° N
SL-8 Rocket 4.0 20:29:23 10° N 20:35:41 68° ENE 20:37:02 53° SE
ISS -1.2 20:34:31 10° W 20:35:39 16° WSW 20:35:39 16° WSW
Mayak 1.2 20:38:27 10° NE 20:38:57 12° NE 20:38:57 12° NE
STARLINK-1269 4.0 20:38:20 10° W 20:41:43 58° WNW 20:41:43 58° WNW
Cosmos 2058 Rocket 3.1 20:42:37 83° W 20:42:39 83° W 20:47:13 10° N
Cosmos 2366 rocket 3.9 20:37:22 10° N 20:43:29 62° ENE 20:44:18 57° ESE
SPOT 5 2.6 20:44:26 79° N 20:44:26 79° N 20:48:34 10° NNW
Cosmos 614 Rocket 4.0 20:44:50 65° ENE 20:44:50 65° ENE 20:49:36 10° NNE
Cosmos 1603 3.8 20:38:59 10° SW 20:44:36 72° WNW 20:50:15 10° NNE
Cosmos 2251 Rocket 4.4 20:40:19 10° SW 20:45:31 50° WNW 20:50:47 10° NNE
STARLINK-1200 4.2 20:43:09 10° W 20:46:20 52° WNW 20:46:20 52° WNW
CZ-4C R/B 4.0 20:42:13 10° NW 20:47:54 33° NNE 20:53:35 13° ENE
CZ-2C R/B 3.9 20:43:11 10° N 20:47:59 38° WNW 20:52:43 10° SW
IGS 5A 4.1 20:49:02 48° WSW 20:49:07 48° W 20:53:11 10° NNW
ERS-1 Rocket 2.9 20:48:38 67° SSW 20:49:09 74° WSW 20:54:13 10° NNW
Landsat 7 4.4 20:49:40 45° SW 20:50:28 50° W 20:55:07 10° NNW
Cosmos 1980 Rocket 4.2 20:47:29 10° NNW 20:51:15 18° NNE 20:53:43 14° ENE
STARLINK-1192 4.4 20:47:55 10° W 20:50:56 47° W 20:50:56 47° W
Cosmos 1892 4.4 20:54:48 10° N 20:56:56 28° NNE 20:56:56 28° NNE
Cosmos 1959 Rocket 4.4 20:52:36 10° N 20:59:01 80° E 20:59:53 67° SE
Cosmos 1076 Rocket 4.3 20:57:18 10° N 21:00:23 45° N 21:00:23 45° N
Aureole 1 Rocket 4.2 21:01:50 28° SSW 21:06:20 90° ESE 21:12:41 10° NNE
RESURS DK-1 4.4 21:03:38 10° N 21:06:25 20° NNE 21:06:25 20° NNE
CARTOSAT-1 4.2 21:07:29 51° WNW 21:07:29 51° WNW 21:11:15 10° NNW
SL-08 R/B 4.4 21:03:12 10° N 21:09:19 66° ENE 21:09:29 66° E
COSMOS 2455 2.7 21:08:54 10° NW 21:14:58 84° SW 21:15:09 82° SSW
In-Cosmos 22 Rocket 4.2 21:14:12 10° NNW 21:20:01 79° W 21:20:10 78° WSW
ASTEX 1 4.2 21:22:57 43° NNE 21:22:57 43° NNE 21:26:37 10° N
Cosmos 1461 4.0 21:17:44 10° NW 21:20:56 45° WNW 21:20:56 45° WNW
Cosmos 2369 Rocket 4.5 21:19:32 10° WNW 21:22:38 15° W 21:25:03 12° SW
Cosmos 1821 Rocket 4.2 21:21:21 10° N 21:27:28 57° ENE 21:27:28 57° ENE
Cosmos 1763 Rocket 4.0 21:23:02 10° NNW 21:27:28 52° NNE 21:27:28 52° NNE
Cosmos 1656 4.2 21:23:23 10° NNW 21:28:47 51° NE 21:28:47 51° NE
NOSS 3-4 (A) 4.2 21:22:40 10° NW 21:29:19 50° WSW 21:30:09 48° SW
NOSS 3-4 (C) 4.2 21:22:45 10° NW 21:29:25 51° SW 21:30:14 49° SW
Cosmos 1190 Rocket 4.3 21:31:47 66° NNW 21:31:47 66° NNW 21:36:30 10° NNE
Terra 2.6 21:32:45 46° WNW 21:32:45 46° WNW 21:36:45 10° NNW
ATLAS CENTAUR R/B 3.6 21:29:06 10° NNW 21:31:52 20° NNE 21:31:52 20° NNE
Meteor 2-12 Rocket 4.4 21:30:22 10° NNW 21:36:31 76° W 21:36:34 76° WSW
Cosmos 1818 4.0 21:39:11 59° N 21:39:11 59° N 21:43:47 10° NE
Cosmos 1934 Rocket 4.5 21:41:06 10° N 21:46:48 50° ENE 21:46:48 50° ENE
Thor Agena Rocket 4.5 21:47:48 10° NNE 21:51:02 40° NNE 21:51:02 40° NNE
Cosmos 1140 Rocket 4.2 21:56:03 51° NNW 21:56:03 51° NNW 22:00:29 10° NNE
USA 234 3.6 21:50:39 10° ENE 21:57:05 63° N 22:03:32 10° W
Cosmos 841 Rocket 4.3 21:52:45 10° NNW 21:56:50 47° NNE 21:56:50 47° NNE
Cosmos 540 Rocket 4.4 21:56:06 10° NNW 21:59:57 44° NNE 21:59:57 44° NNE
ATLAS 2AS CENTAUR R/B 3.8 21:55:03 10° NW 22:01:32 32° WSW 22:01:48 32° WSW
Cosmos 2344 4.4 21:55:17 10° NW 22:04:01 64° NE 22:09:43 33° ESE
Cosmos 1697 Rocket 3.3 22:05:30 10° NNW 22:10:12 53° NNE 22:10:12 53° NNE
SL-16 R/B 4.2 22:09:14 10° NNW 22:13:30 21° NNE 22:15:22 18° ENE
Mayak 0.8 22:13:32 10° N 22:15:32 26° N 22:15:32 26° N
ALOS 2 4.5 22:23:54 29° N 22:23:54 29° N 22:26:05 10° N
Cosmos 2322 Rocket 4.1 22:23:31 10° NNW 22:27:51 22° NE 22:29:38 19° ENE
Cosmos 1980 Rocket 3.0 22:31:02 10° NNW 22:35:27 47° NNE 22:35:27 47° NNE
CZ-4C R/B 3.1 22:31:00 10° NW 22:37:42 61° NE 22:38:45 56° ENE
Nadezhda 3 Rocket 4.3 22:38:52 63° NW 22:38:52 63° NW 22:44:35 10° N
Cosmos 2278 4.5 22:41:37 10° NNW 22:45:46 49° NNW 22:45:46 49° NNW
COSMOS 2406 4.2 22:56:09 41° NE 22:56:09 41° NE 22:59:46 10° NNE
Cosmos 2082 Rocket 3.9 23:00:51 25° ENE 23:00:51 25° ENE 23:03:26 10° NE
ATLAS CENTAUR R/B 4.3 23:07:49 10° NW 23:08:02 11° NW 23:08:02 11° NW
Cosmos 2100 Rocket 4.5 23:07:47 10° N 23:12:58 54° NE 23:12:58 54° NE
ATLAS 5 CENTAUR R/B 3.5 23:20:05 30° NNE 23:20:05 30° NNE 23:23:11 10° NE
Cosmos 1833 Rocket 3.6 23:28:31 43° NNE 23:28:31 43° NNE 23:32:16 10° NNE
CZ-2D R/B 4.3 23:30:11 10° NE 23:32:53 16° ENE 23:32:53 16° ENE
Resurs 1-4 Rocket 4.3 23:31:41 10° NE 23:34:06 16° ENE 23:34:06 16° ENE
Cosmos 2173 Rocket 4.3 23:30:11 10° N 23:35:08 59° N 23:35:08 59° N
USA 234 3.6 23:33:20 10° E 23:39:46 62° N 23:46:12 10° WNW
Cosmos 2061 Rocket 4.3 23:46:31 10° N 23:51:53 64° NNE 23:51:53 64° NNE
SL-16 R/B 3.2 23:52:44 45° ENE 23:53:18 46° ENE 23:59:12 10° N
